Location: Ay?beleni
(36.6500°N, 30.3000°E)
Time: 09:25:10
(UTC+00:00)

Daily predictions for brighter satellites

Satellite Brightness Start Highest point End
(mag) Time Altitude Azimuth Time Altitude Azimuth Time Altitude Azimuth
SL-8 Rocket 4.4 15:38:02 10° SSW 15:44:20 74° W 15:50:41 10° N
Cosmos 2297 Rocket 2.2 15:38:41 10° NNW 15:44:22 80° ENE 15:50:01 10° SSE
Cosmos 1821 Rocket 4.5 15:38:48 10° SSE 15:44:38 39° E 15:50:30 10° NNE
Cosmos 2263 Rocket 4.0 15:44:31 10° NNE 15:46:12 11° NE 15:47:53 10° ENE
Cosmos 389 Rocket 2.9 15:45:34 10° SSE 15:48:42 37° E 15:51:52 10° NNE
CZ-4C R/B 3.6 15:46:07 10° NNE 15:49:14 32° E 15:52:15 10° SSE
ARGOS 3.8 15:47:26 10° SE 15:52:13 34° ENE 15:57:03 10° N
deb Chang Zheng 4 3.4 15:51:43 10° SSE 15:55:53 73° ENE 16:00:04 10° N
Cosmos 1697 Rocket 2.9 15:51:36 10° SSW 15:57:15 79° WNW 16:02:56 10° NNE
Cosmos 1125 Rocket 3.5 15:53:37 10° S 15:58:51 69° ESE 16:04:04 10° NNE
Cosmos 2098 4.1 15:56:47 10° S 15:59:52 65° E 16:02:49 10° NNE
X-37B 1.4 15:57:20 10° W 16:00:23 45° NNW 16:03:27 10° NE
Genesis I 4.5 15:59:44 10° N 16:03:08 25° NE 16:06:06 12° ESE
CZ-2C R/B 2.1 16:01:58 10° SW 16:04:54 27° SSE 16:07:12 13° ESE
Cosmos 1908 3.4 16:04:01 10° S 16:07:47 51° E 16:11:33 10° NNE
MOS 1-B Rocket 4.1 16:01:10 10° NNE 16:07:56 65° E 16:13:47 10° S
Cosmos 2278 4.0 16:02:35 10° S 16:07:56 46° ESE 16:13:20 10° NE
SJ-11-01 4.4 16:05:44 10° SSE 16:10:14 50° ENE 16:14:46 10° N
Cosmos 2227 Rocket 2.3 16:05:06 10° NNW 16:10:48 86° WSW 16:16:27 10° SSE
Timation 2 Rocket 4.1 16:07:41 10° NNW 16:14:35 73° ENE 16:21:13 10° SSE
Iridium 4 Rocket 4.1 16:11:05 10° NNE 16:14:51 26° E 16:18:50 10° SE
Cosmos 494 Rocket 4.0 16:10:32 10° N 16:15:41 56° ENE 16:20:44 10° SSE
CZ-2C R/B 2.7 16:11:21 10° NNE 16:17:00 83° ESE 16:22:32 10° S
Cosmos 1356 3.6 16:13:58 10° NNW 16:17:21 73° W 16:20:43 10° S
Landsat 5 3.9 16:15:04 10° N 16:19:24 71° WNW 16:23:50 10° SSW
Meteor 1-16 Rocket 4.3 16:14:25 10° S 16:20:17 67° E 16:26:07 10° NNE
SKYMED 2 4.1 16:17:25 10° N 16:21:43 62° WNW 16:25:59 10° SSW
Okean O Rocket 1.5 16:17:44 10° SSE 16:22:04 90° ENE 16:26:25 10° NNW
SL-16 R/B 3.3 16:21:26 10° SSE 16:25:35 21° E 16:26:49 20° E
IRIS 4.0 16:23:47 10° WNW 16:26:02 47° NNE 16:26:41 35° ENE
CZ-3 Stage 3 4.5 15:17:54 10° WSW 16:29:23 72° S 16:37:12 19° ESE
YAOGAN 1 2.9 16:25:20 10° SE 16:29:23 42° ENE 16:33:29 10° N
CZ-4 R/B 1.7 16:26:07 10° SE 16:29:47 41° ENE 16:33:33 10° N
Okean-O 3.6 16:30:07 24° E 16:30:45 24° ENE 16:34:20 10° NNE
DMSP B5D2-2 4.3 16:26:10 10° NNE 16:31:12 46° E 16:36:12 10° S
Cosmos 1455 Rocket 2.9 16:29:38 10° S 16:33:58 68° E 16:38:22 10° NNE
Cosmos 1703 3.2 16:31:40 10° N 16:35:32 56° E 16:39:22 10° SSE
Cosmos 2082 3.6 16:30:19 10° NNW 16:35:57 74° ENE 16:41:32 10° SSE
GPS 2-04 Rocket1 3.0 16:32:25 10° W 16:36:04 50° SSW 16:37:41 27° SE
Spot 2 3.8 16:32:33 10° SSE 16:36:34 72° ENE 16:40:41 10° N
Cosmos 1727 Rocket 4.4 16:32:33 10° NNW 16:38:42 65° W 16:44:46 10° S
Cosmos 1953 2.7 16:35:37 10° SSW 16:39:37 68° W 16:43:39 10° N
Cosmos 2322 Rocket 3.7 16:39:25 10° SSE 16:41:27 18° SE 16:41:27 18° SE
Meteor 1-21 Rocket 4.2 16:38:13 10° N 16:44:05 84° E 16:50:01 10° S
H-2A R/B 1.8 16:41:03 10° NNE 16:45:07 65° ESE 16:49:14 10° S
ATLAS 3B R/B 4.2 16:39:32 10° WSW 16:45:16 32° NW 16:51:14 10° NNE
Tiangong 1.8 16:43:35 10° SW 16:46:24 39° SSE 16:46:24 39° SSE
Okean 1-7 Rocket 4.0 16:42:44 10° N 16:46:51 38° E 16:47:04 37° E
Cosmos 1544 Rocket 3.6 16:42:54 10° S 16:47:12 52° E 16:51:33 10° NNE
H-2A R/B 3.4 16:43:02 10° SSW 16:48:00 42° W 16:53:06 10° NNW
Cosmos 1328 4.1 16:45:56 10° N 16:49:35 43° ENE 16:49:35 43° ENE
Cosmos 1300 2.5 16:53:53 10° S 16:57:39 66° E 16:57:58 62° ENE
NOSS 3-1 (C) 3.3 16:55:09 10° S 16:59:53 43° ESE 17:00:11 43° ESE
ATLAS 5 CENTAUR R/B 2.2 16:57:31 10° SW 17:01:13 47° NW 17:04:05 17° NNE
Centaur AC-112 4.2 16:53:50 10° WSW 17:05:10 33° SSW 17:06:59 25° SSE
Cosmos 405 Rocket 2.8 17:01:25 10° N 17:05:22 81° W 17:07:30 26° S
Cosmos 1605 Rocket 3.9 17:03:52 10° S 17:09:56 63° E 17:16:09 10° NNE
Cosmos 967 Rocket 4.4 17:05:21 10° NNW 17:11:50 88° ENE 17:15:22 29° SSE
IRS-1C Rocket 4.0 17:08:16 14° SSE 17:12:46 87° ENE 17:18:03 10° NNW
SL-8 R/B 4.0 17:09:55 10° WSW 17:14:40 62° NNW 17:15:46 47° NNE
Cosmos 1535 Rocket 4.5 17:08:28 10° S 17:14:40 84° W 17:21:00 10° N
H-2A R/B 4.0 17:13:59 10° SSW 17:18:07 38° W 17:22:10 10° NNW
Cosmos 1980 Rocket 4.0 17:17:44 10° WSW 17:22:40 30° WNW 17:27:38 10° N
Meteor 2-10 Rocket 4.4 17:18:39 10° S 17:28:30 18° NNE 17:29:50 10° NNE
Cosmos 489 Rocket 4.3 17:20:48 10° NNW 17:27:01 89° ENE 17:29:10 44° SSE
CSL-04 Debris 4.0 17:26:57 66° SSE 17:27:44 84° ENE 17:33:09 10° NNW
Cosmos 2263 Rocket 2.0 17:25:24 10° NNW 17:30:59 82° ENE 17:31:02 82° ENE
Cosmos 1269 Rocket 3.9 17:28:53 10° NNW 17:34:02 84° NW 17:34:02 84° NW
X-37B 3.7 17:35:13 10° NW 17:35:50 13° NW 17:35:50 13° NW
CZ-2C R/B 3.8 17:40:48 10° WSW 17:41:23 14° WSW 17:41:23 14° WSW
CSL-04 Rocket 3.9 17:48:32 70° WSW 17:48:34 70° WSW 17:54:06 10° NNW
Cosmos 371 Rocket 4.2 17:44:57 10° SW 17:49:35 45° WNW 17:50:04 44° NW
CZ-4 R/B 4.5 18:03:25 10° WSW 18:04:58 12° W 18:06:32 10° WNW
Cosmos 2344 4.5 17:55:54 10° NNW 18:05:19 56° NE 18:05:54 56° ENE
SL-16 R/B 3.1 18:03:51 10° SW 18:08:50 45° WNW 18:08:50 45° WNW
Cosmos 2322 Rocket 4.4 18:22:01 10° SW 18:23:24 17° SW 18:23:24 17° SW
